User: anonymous   Login
Location: Unspecified
(0.0000°N, 0.0000°E)
Time: 18:40:41
(UTC+00:00)
Language:

Cosmos 1574 - Orbit

View from above orbital plane
View from above orbital plane
View from above satellite
View from above satellite

Ground track
Ground track

The orbit data is extracted from the following two-line orbital elements,

1 15055U 84062A   17267.64683240 +.00000027 +00000-0 +12840-4 0  9990
2 15055 082.9534 272.1238 0026092 298.2247 199.7354 13.74291045667707
Epoch (UTC): 24 September 2017 15:31:26
Eccentricity: 0.0026092
inclination: 82.9534°
perigee height: 965 km
apogee height: 1003 km
right ascension of ascending node: 272.1238°
argument of perigee: 298.2247°
revolutions per day: 13.74291045
mean anomaly at epoch: 199.7354°
orbit number at epoch: 66770

The dashed part of the orbit path shows where the satellite is in the earth's shadow,  

DLR